Regional Weather Roundup
Issued by NWS Memphis, TN

Home | Current Version | Previous Version | Text Only | Print | Product List | Glossary On
Versions: 1 2 3 4 5 6 7 8 9 10 11 12 13 14 15 16 17 18 19 20 21 22 23 24 25 26 27 28 29 30 31 32 33 34 35 36 37 38 39 40 41 42 43 44 45 46 47 48 49 50
000
ASUS44 KMEG 050310
RWRMEG
MEMPHIS CWA HOURLY WEATHER ROUNDUP
NATIONAL WEATHER SERVICE MEMPHIS TN
1000 PM CDT FRI SEP 04 2015

...WEST TENNESSEE...

CITY           SKY/WX    TMP DP  RH WIND       PRES   REMARKS
MEMPHIS INTL   PTCLDY    83  71  67 CALM      30.01R
NWS MEMPHIS      N/A     80 N/A N/A MISG        N/A
JACKSON        CLEAR     74  72  93 CALM      30.03R
LEXINGTON      CLEAR     72  72 100 CALM      30.03R
DYERSBURG      CLEAR     75  72  88 CALM      30.03R
UNION CITY     CLEAR     73  72  94 CALM      30.02R
PARIS          CLEAR     73  70  88 CALM      30.05R


...EASTERN ARKANSAS...

CITY           SKY/WX    TMP DP  RH WIND       PRES   REMARKS
JONESBORO      CLEAR     75  72  90 NE5       30.01R
WEST MEMPHIS   CLEAR     78  75  90 CALM      29.99R
BATESVILLE     CLEAR     77  70  78 CALM      30.01R
NEWPORT        CLEAR     79  73  81 CALM      30.01R
WALNUT RIDGE   CLEAR     79  70  73 E5        30.01R
BLYTHEVILLE    CLEAR     77  73  87 CALM      30.01R
SEARCY         CLEAR     76  72  87 CALM      30.02R
STUTTGART      CLEAR     81  68  65 E6        30.00R
PINE BLUFF     CLEAR     79  71  76 CALM      29.98R
MONTICELLO     PTCLDY    80  75  84 CALM      29.98R


...NORTH MISSISSIPPI...

CITY           SKY/WX    TMP DP  RH WIND       PRES   REMARKS
TUPELO         CLEAR     78  73  84 CALM      30.01R
OXFORD         CLEAR     75  72  88 CALM      30.03S
OLIVE BRANCH   CLEAR     79  79 100 CALM      30.02R
TUNICA           N/A    N/A N/A N/A MISG        N/A
CLARKSDALE       N/A     77  72  83 NE6       30.00S
CORINTH        CLEAR     73  72  94 CALM      30.02R FOG
GREENWOOD      CLEAR     76  70  82 NE3       29.98R
COLUMBUS       CLEAR     78  74  86 CALM      29.99R
STARKVILLE     FAIR      75  70  83 CALM      30.01R
GOLDEN TRIANGL PTCLDY    81  70  69 NE6       30.00R


...SOUTHEAST MISSOURI...

CITY           SKY/WX    TMP DP  RH WIND       PRES   REMARKS
WEST PLAINS    CLEAR     74  69  85 CALM      30.07R
POPLAR BLUFF   CLEAR     75  73  93 CALM      30.01R
CAPE GIRARDEAU CLEAR     73  71  93 E3        30.02R


...NORTHWEST ALABAMA...

CITY           SKY/WX    TMP DP  RH WIND       PRES   REMARKS
MUSCLE SHOALS  PTCLDY    75  69  81 CALM      30.04R


...MIDDLE TENNESSEE...

CITY           SKY/WX    TMP DP  RH WIND       PRES   REMARKS
NASHVILLE      CLEAR     79  66  64 CALM      30.05R
CLARKSVILLE    CLEAR     75  67  76 N3        30.05R
COLUMBIA       CLEAR     75  75 100 CALM      30.04S


...WESTERN KENTUCKY...

CITY           SKY/WX    TMP DP  RH WIND       PRES   REMARKS
PADUCAH        CLEAR     72  69  90 CALM      30.03R
FORT CAMPBELL  CLEAR     78  68  72 N5        30.05R


...CENTRAL ARKANSAS...

CITY           SKY/WX    TMP DP  RH WIND       PRES   REMARKS
LITTLE ROCK    PTCLDY    82  68  62 NE9       29.99R


SKY/WX REPORTED AS FAIR MEANS FEW OR NO CLOUDS BELOW
12 THOUSAND FEET.




USA.gov is the U.S. government's official web portal to all federal, state and local government web resources and services.